• în Republica Moldova
  • Lista ţărilor
  • Pe 7 zile
  • Temperatura apei
  • Hartă satelitară
  • Meteo pe hartă
  • Widget-uri
  • user-avatar
    Intrare

    Meteo pe oră la Bregenz

    Astăzi, 23 Ianuarie, Marţi

    Timp Temperatura Precipitaţii Vânt Presiune Umiditate
    00:00 +1°C° 0,5 mm 2 m/s 645 mmHg 98%
    01:00 +1°C° 0 mm 2 m/s 646 mmHg 98%
    02:00 +1°C° 0,3 mm 2 m/s 646 mmHg 97%
    03:00 -1°C° 0,3 mm 2 m/s 647 mmHg 97%
    04:00 -1°C° 0,3 mm 2 m/s 647 mmHg 97%
    05:00 -1°C° 0,2 mm 2 m/s 647 mmHg 97%
    06:00 -2°C° 0,2 mm 2 m/s 648 mmHg 97%
    07:00 0°C° 0,2 mm 1 m/s 648 mmHg 97%
    08:00 0°C° 0,1 mm 1 m/s 649 mmHg 96%
    09:00 +1°C° 0,1 mm 1 m/s 649 mmHg 96%
    10:00 +1°C° 0,1 mm 1 m/s 649 mmHg 95%
    11:00 +1°C° 0 mm 1 m/s 650 mmHg 94%
    12:00 +2°C° 0 mm 1 m/s 650 mmHg 92%
    13:00 +3°C° 0 mm 1 m/s 650 mmHg 90%
    14:00 +2°C° 0 mm 1 m/s 650 mmHg 89%
    15:00 +2°C° 0 mm 1 m/s 650 mmHg 88%
    16:00 +2°C° 0 mm 1 m/s 650 mmHg 88%
    17:00 +1°C° 0 mm 1 m/s 650 mmHg 85%
    18:00 -2°C° 0 mm 2 m/s 650 mmHg 83%
    19:00 -3°C° 0 mm 2 m/s 650 mmHg 80%
    20:00 -4°C° 0 mm 2 m/s 650 mmHg 78%
    21:00 -4°C° 0 mm 2 m/s 650 mmHg 75%
    22:00 -4°C° 0 mm 2 m/s 650 mmHg 72%
    23:00 -4°C° 0 mm 2 m/s 650 mmHg 71%

    Mâine, 24 Ianuarie, Miercuri

    Timp Temperatura Precipitaţii Vânt Presiune Umiditate
    00:00 -4°C° 0 mm 2 m/s 651 mmHg 69%
    01:00 -4°C° 0 mm 2 m/s 651 mmHg 68%
    02:00 -4°C° 0 mm 2 m/s 650 mmHg 67%
    03:00 -4°C° 0 mm 2 m/s 650 mmHg 65%
    04:00 -4°C° 0 mm 2 m/s 650 mmHg 64%
    05:00 -4°C° 0 mm 2 m/s 650 mmHg 63%
    06:00 -4°C° 0 mm 2 m/s 650 mmHg 62%
    07:00 -4°C° 0 mm 2 m/s 650 mmHg 61%
    08:00 -3°C° 0 mm 2 m/s 650 mmHg 63%
    09:00 -2°C° 0 mm 2 m/s 650 mmHg 64%
    10:00 +1°C° 0 mm 2 m/s 650 mmHg 65%
    11:00 +2°C° 0 mm 2 m/s 650 mmHg 69%
    12:00 +3°C° 0 mm 2 m/s 650 mmHg 73%
    13:00 +5°C° 0 mm 1 m/s 650 mmHg 77%
    14:00 +5°C° 0 mm 1 m/s 650 mmHg 77%
    15:00 +3°C° 0 mm 2 m/s 649 mmHg 77%
    16:00 +3°C° 0 mm 2 m/s 649 mmHg 77%
    17:00 +2°C° 0 mm 2 m/s 649 mmHg 76%
    18:00 -1°C° 0 mm 2 m/s 649 mmHg 74%
    19:00 -2°C° 0 mm 3 m/s 648 mmHg 72%
    20:00 -2°C° 0 mm 3 m/s 648 mmHg 71%
    21:00 -2°C° 0 mm 3 m/s 648 mmHg 70%
    22:00 -4°C° 0 mm 3 m/s 648 mmHg 69%
    23:00 -4°C° 0 mm 3 m/s 648 mmHg 69%

    Poimâine, 25 Ianuarie, Joi

    Timp Temperatura Precipitaţii Vânt Presiune Umiditate
    00:00 -4°C° 0 mm 3 m/s 648 mmHg 69%
    01:00 -4°C° 0 mm 3 m/s 647 mmHg 69%
    02:00 -4°C° 0 mm 3 m/s 647 mmHg 70%
    03:00 -4°C° 0 mm 3 m/s 647 mmHg 71%
    04:00 -4°C° 0 mm 3 m/s 647 mmHg 71%
    05:00 -4°C° 0 mm 3 m/s 647 mmHg 72%
    06:00 -4°C° 0 mm 3 m/s 646 mmHg 72%
    07:00 -4°C° 0 mm 3 m/s 646 mmHg 73%
    08:00 -2°C° 0 mm 3 m/s 646 mmHg 73%
    09:00 -1°C° 0 mm 3 m/s 646 mmHg 74%
    10:00 0°C° 0 mm 3 m/s 646 mmHg 74%
    11:00 +1°C° 0 mm 3 m/s 645 mmHg 75%
    12:00 +1°C° 0 mm 3 m/s 645 mmHg 76%
    13:00 +3°C° 0 mm 2 m/s 645 mmHg 77%
    14:00 +3°C° 0 mm 2 m/s 645 mmHg 78%
    15:00 +3°C° 0 mm 2 m/s 644 mmHg 79%
    16:00 +3°C° 0 mm 2 m/s 644 mmHg 80%
    17:00 +2°C° 0 mm 2 m/s 643 mmHg 80%
    18:00 +1°C° 0 mm 2 m/s 643 mmHg 80%
    19:00 -1°C° 0 mm 2 m/s 643 mmHg 80%
    20:00 -1°C° 0 mm 2 m/s 643 mmHg 81%
    21:00 -1°C° 0 mm 2 m/s 643 mmHg 81%
    22:00 -1°C° 0 mm 2 m/s 643 mmHg 81%
    23:00 -1°C° 0 mm 2 m/s 642 mmHg 82%

    26 Ianuarie, Vineri

    Timp Temperatura Precipitaţii Vânt Presiune Umiditate
    00:00 -1°C° 0 mm 2 m/s 642 mmHg 82%
    01:00 -2°C° 0 mm 2 m/s 642 mmHg 83%
    02:00 -2°C° 0 mm 2 m/s 642 mmHg 84%
    03:00 -2°C° 0 mm 2 m/s 642 mmHg 86%
    04:00 -2°C° 0 mm 2 m/s 641 mmHg 87%
    05:00 -2°C° 0,4 mm 2 m/s 642 mmHg 88%
    06:00 -3°C° 0,4 mm 2 m/s 642 mmHg 90%
    07:00 -1°C° 0,4 mm 1 m/s 642 mmHg 91%
    08:00 -2°C° 0,8 mm 2 m/s 642 mmHg 92%
    09:00 -2°C° 0,8 mm 2 m/s 642 mmHg 92%
    10:00 -2°C° 0,8 mm 2 m/s 643 mmHg 93%
    11:00 -2°C° 1,3 mm 2 m/s 642 mmHg 94%
    12:00 -2°C° 1,3 mm 2 m/s 642 mmHg 95%
    13:00 -2°C° 1,3 mm 2 m/s 642 mmHg 96%
    14:00 -3°C° 1,9 mm 2 m/s 642 mmHg 96%
    15:00 -3°C° 1,9 mm 2 m/s 643 mmHg 97%
    16:00 -3°C° 1,9 mm 2 m/s 643 mmHg 97%
    17:00 -4°C° 1,4 mm 2 m/s 643 mmHg 97%
    18:00 -4°C° 1,4 mm 2 m/s 644 mmHg 97%
    19:00 -4°C° 1,4 mm 2 m/s 644 mmHg 97%
    20:00 -4°C° 0,7 mm 2 m/s 645 mmHg 97%
    21:00 -5°C° 0,7 mm 2 m/s 645 mmHg 97%
    22:00 -3°C° 0,7 mm 1 m/s 645 mmHg 97%
    23:00 -3°C° 0,5 mm 1 m/s 645 mmHg 97%

    27 Ianuarie, Sâmbătă

    Timp Temperatura Precipitaţii Vânt Presiune Umiditate
    00:00 -3°C° 0,5 mm 1 m/s 646 mmHg 97%
    01:00 -3°C° 0,5 mm 1 m/s 646 mmHg 97%
    02:00 -3°C° 0,3 mm 1 m/s 646 mmHg 97%
    03:00 -3°C° 0,3 mm 1 m/s 646 mmHg 97%
    04:00 -4°C° 0,3 mm 1 m/s 646 mmHg 97%
    05:00 -4°C° 0,3 mm 1 m/s 646 mmHg 97%
    06:00 -6°C° 0,3 mm 2 m/s 646 mmHg 96%
    07:00 -6°C° 0,3 mm 2 m/s 647 mmHg 96%
    08:00 -5°C° 0,2 mm 2 m/s 647 mmHg 96%
    09:00 -5°C° 0,2 mm 2 m/s 647 mmHg 95%
    10:00 -5°C° 0,2 mm 2 m/s 648 mmHg 94%
    11:00 -4°C° 0,1 mm 2 m/s 648 mmHg 94%
    12:00 -3°C° 0,1 mm 2 m/s 648 mmHg 93%
    13:00 -3°C° 0,1 mm 2 m/s 649 mmHg 93%
    14:00 -3°C° 0 mm 2 m/s 649 mmHg 93%
    15:00 -3°C° 0 mm 2 m/s 649 mmHg 93%
    16:00 -3°C° 0 mm 2 m/s 649 mmHg 93%
    17:00 -4°C° 0 mm 2 m/s 649 mmHg 93%
    18:00 -5°C° 0 mm 2 m/s 650 mmHg 92%
    19:00 -5°C° 0 mm 2 m/s 650 mmHg 92%
    20:00 -6°C° 0 mm 2 m/s 650 mmHg 90%
    21:00 -6°C° 0 mm 2 m/s 651 mmHg 87%
    22:00 -6°C° 0 mm 2 m/s 651 mmHg 85%
    23:00 -4°C° 0 mm 1 m/s 651 mmHg 84%

    28 Ianuarie, Duminică

    Timp Temperatura Precipitaţii Vânt Presiune Umiditate
    00:00 -4°C° 0 mm 1 m/s 651 mmHg 83%
    01:00 -4°C° 0 mm 1 m/s 651 mmHg 82%
    02:00 -4°C° 0 mm 1 m/s 651 mmHg 82%
    03:00 -4°C° 0 mm 1 m/s 652 mmHg 81%
    04:00 -4°C° 0 mm 1 m/s 652 mmHg 81%
    05:00 -4°C° 0 mm 1 m/s 652 mmHg 80%
    06:00 -4°C° 0 mm 1 m/s 652 mmHg 80%
    07:00 -4°C° 0 mm 1 m/s 653 mmHg 79%
    08:00 -3°C° 0 mm 1 m/s 653 mmHg 80%
    09:00 -2°C° 0 mm 1 m/s 654 mmHg 81%
    10:00 0°C° 0 mm 1 m/s 654 mmHg 82%
    11:00 0°C° 0 mm 1 m/s 654 mmHg 86%
    12:00 +1°C° 0 mm 1 m/s 654 mmHg 90%
    13:00 +2°C° 0 mm 1 m/s 655 mmHg 93%
    14:00 +2°C° 0 mm 1 m/s 654 mmHg 94%
    15:00 0°C° 0 mm 0 m/s 654 mmHg 94%
    16:00 0°C° 0 mm 0 m/s 654 mmHg 94%
    17:00 0°C° 0 mm 1 m/s 654 mmHg 89%
    18:00 -1°C° 0 mm 1 m/s 654 mmHg 85%
    19:00 -2°C° 0 mm 1 m/s 655 mmHg 80%
    20:00 -2°C° 0 mm 1 m/s 655 mmHg 78%
    21:00 -2°C° 0 mm 1 m/s 655 mmHg 76%
    22:00 -2°C° 0 mm 1 m/s 655 mmHg 74%
    23:00 -2°C° 0 mm 1 m/s 655 mmHg 72%
    Arată mai mult